MAKERSAT 0

Last updated on Mon Sep 21 2026 00:03:44 GMT+0000 (Coordinated Universal Time)

1 43016U 17073D 26263.23489042 .00016691 00000+0 41349-3 0 9999 2 43016 97.4450 146.6375 0096977 294.4886 64.6268 15.35666907481032
UTC large
Height (km)
Speed (km/s)
/
Latitude / Longitude
Inclination (degrees)
Orbital Period (minutes)
Azimuth
Elevation
Range (km)
Doppler Factor

Next 0 passes for location: London (51.5072 / 0.1276)

No passes found over London.
MAKERSAT 0